Simultaneous Nadir Overpasses (SNOs) Predictions

Prediction of SNOs between GOES-15 and METOP-C Satellite Orbit:

Table of predicted SNOs for the next 14.0 days since TLE Epoch: 8/15/2020
Index Date Time (GOES-15) GOES-15 Lat,Lon METOP-C Lat,Lon Distance(km) Time Diff (sec)
1 08/17/2020 06:13:56 0.01,-127.99 -0.47,-130.22 253.07 80
2 08/18/2020 05:50:35 0.02,-127.96 0.60,-125.21 311.96 80
3 08/19/2020 18:09:27 -0.02,-127.89 0.38,-129.78 214.26 80
4 08/20/2020 17:51:26 -0.02,-127.86 -0.70,-124.77 350.91 80
5 08/22/2020 06:10:27 0.02,-127.80 -0.30,-129.37 178.36 80
6 08/23/2020 05:47:06 0.03,-127.76 0.77,-124.37 386.26 80
7 08/24/2020 18:05:56 -0.02,-127.69 0.25,-128.93 140.83 80
8 08/25/2020 17:47:56 -0.02,-127.65 -0.83,-123.92 423.77 80
9 08/27/2020 06:06:56 0.02,-127.59 -0.18,-128.52 106.21 80
10 08/28/2020 05:43:36 0.02,-127.54 0.89,-123.52 457.69 80
11 08/29/2020 18:02:26 -0.02,-127.45 0.13,-128.07 70.59 80
